Location: Beekmeers
(50.8953°N, 3.6968°E)
Time: 07:16:36
(UTC+00:00)

SENTINEL 1B - Pass Details

Date: 22 October 2025
Orbit: 561 x 585 km, 98.1° (Epoch: 17 November)

Event Time Altitude Azimuth Distance (km) Brightness Sun altitude
Exits shadow 19:53:48 18° 344° (NNW) 1,486 7.6 -31.1°
Drops below altitude 10° 19:54:52 10° 345° (NNW) 1,916 8.3 -31.3°
Sets 19:57:01 0° 346° (NNW) 2,818 9.2 -31.6°
